Location: Fontevrault
(47.1823°N, 0.0493°E)
Time: 11:19:21
(UTC+00:00)

Meteor 2-10 Rocket - Pass Details

Date: 16 June 2021
Orbit: 733 x 885 km, 81.2° (Epoch: 27 July)

Event Time Altitude Azimuth Distance (km) Brightness Sun altitude
Rises 23:09:22 0° 344° (NNW) 3,237 8.4 -18.5°
Reaches altitude 10° 23:11:49 10° 339° (NNW) 2,288 7.2 -18.6°
Maximum altitude 23:16:43 49° 266° (W) 959 4.0 -18.7°
Enters shadow 23:18:55 29° 208° (SSW) 1,332 4.3 -18.8°
